STARLINK-11261, 60724

Orbit data source: Space-Track

STARLINK-11261, 60724 is a payload satellite owned by SpaceX/Seattle (US) in LEO that was launched on Wed, 28 Aug 2024 UTC via an FALCON 9 launch vehicle from the Air Force Eastern Test Range (AFETR). Payload-class satellites include a variety of spacecraft equipped with specific instruments for various scientific and technological missions. These include communications satellites like Starlink; space stations such as the ISS; scientific satellites like the Hubble; Earth observation satellites from companies like Planet Labs, Umbra, and HawkEye 360; GPS; miniature CubeSats for education and research; and military/defense satellites.

Not visible in the next 10 days
Identifier
60724, 2024-152E
Orbit
LEO
Country
Flag of USUS
Related business
Manufacturer
SpaceX/Seattle
Mission
Operational Commercial Communications
Bus & Motor
STARLINK V2MD, Unknown motor
Mass
960 kg wet, ~910 kg dry
Launch date (UTC)
2024-08-28 (1 year ago)
Launch vehicle
FALCON 9
Launch site
Air Force Eastern Test Range (AFETR)
Object type
Payload
Rocket body
Debris
Shape & HBR
Box + 2 Pan, 18.1 m
Radar Cross Section
36.964 m², Large (>1 m²)

Expand to show TLE details & history
Last TLE update: 21 hours ago

TLE from 21 hours ago
0 STARLINK-11261
1 60724U 24152E   25347.80340207  .00002278  00000-0  23676-4 0  9995
2 60724  53.1591 179.7944 0001226  59.4537 300.6602 15.69688443 75340
Epoch: 2025-12-13T19:16Z
TLE epoch observation values (Epoch: 2025-12-13T19:16:53.938Z)
Latitude
-0.00002°
Longitude
167.84421°
Altitude
360.282 km
Speed
7.695 km/s
True Right ascension
11h 59m 10s
True Declination
0° 00' 00"
Sunlit
Object was in daylight at epoch
Visualization orbit readout
Latitude
Unknown
Longitude
Unknown
Altitude
Unknown
Speed
Unknown
Apparent Right ascension
Unknown
Apparent Declination
Unknown
Sunlit
N/A
Visualization observer readout
Local Sidereal Time
14:59:17
Azimuth
Unknown
Elevation
Unknown
Doppler factor
Unknown
Orbital elements
Apogee altitude
360.875 km
Perigee altitude
359.223 km
Semi-major axis
6,738.186 km
Eccentricity
0.00012
Inclination
53.1591°
RAAN
179.7944°
Arg. of periapsis
59.4537°
True anomaly
300.64811°
Mean anomaly
300.6602°
Eccentric anomaly
300.65416°
Mean motion
3.924 °/min
Orbital period
91.74 mins
BSTAR
0.000023676
Loading maneuver chart data...
Computing Atmospheric mass density...
Loading historical data...
Loading historical data...
Loading historical data...
Loading historical data...
Loading historical data...
Loading historical data...
Loading historical data...

Documentation

Showing up to 5 results
|